www.pogodaiklimat.ru

Погода и климат >> Архив погоды >> Великобритания >> Кинлосс


ПОГОДА в Кинлоссе

  • Прогноз погоды в Кинлоссе
  • Монитор погоды в Кинлоссе

АРХИВ ПОГОДЫ в Кинлоссе

Время (UTC), дата Ветер
(напр.,м/с)
 
Видим.   Явления Облачность Т
(С)
Тd
(С)
f
(%)
Тe
(С)
Тes
(С)
Комфортность P
(гПа)
Po
(гПа)
Тmin
(С)
Tmax
(С)
R
(мм)
R24
(мм)
S
(см)
22 14.09 ЮЗ 8
{13}
45 км н/о +11.9 +8.3 79 +9 +9 1013.8 1013.2
23 14.09 ЮЗ 11
{15}
17 км н/о +12.1 +7.7 74 +8 +8 1012.9 1012.3
00 15.09 З 14-21
{21}
15 км н/о +12.3 +7.9 74 +8 +8 1013.7 1013.1 1
01 15.09 ЮЗ 10
{19}
14 км н/о +11.8 +5.9 67 +8 +8 1014.0 1013.4
02 15.09 З 6
{14}
14 км н/о +11.6 +5.7 67 +9 +9 1014.4 1013.7
03 15.09 З 10-15
{15}
15 км н/о +11.5 +5.3 66 +8 +8 1015.0 1014.3
04 15.09 З 10-16
{17}
14 км н/о +11.0 +4.4 64 +7 +7 1015.0 1014.4
05 15.09 З 9-14
{17}
13 км н/о +10.5 +3.9 64 +7 +7 1015.6 1015.0
06 15.09 З 8
{13}
13 км н/о +10.5 +4.4 66 +7 +7 1015.4 1014.8 +10.4 1
07 15.09 З 11
{15}
12 км н/о +11.0 +4.8 66 +7 +7 1015.5 1014.9
08 15.09 З 9
{16}
13 км н/о +11.3 +5.5 67 +8 +8 1016.5 1015.9
09 15.09 З 11
{14}
10 км н/о +11.9 +6.0 67 +8 +8 1017.0 1016.4
10 15.09 З 11
{16}
12 км н/о +12.6 +6.8 68 +9 +9 1017.7 1017.1
11 15.09 З 8
{13}
10 км н/о +12.2 +5.1 62 +9 +9 1018.7 1018.1
12 15.09 З 8 13 км н/о +14.2 +6.4 59 +12 +12 1019.3 1018.7
13 15.09 З 9
{14}
19 км н/о +13.3 +6.0 61 +11 +11 1019.7 1019.1
14 15.09 З 7
{13}
26 км н/о +13.8 +6.2 60 +12 +12 1019.8 1019.2
15 15.09 З 9 12 км н/о +14.2 +7.8 65 +12 +12 1019.9 1019.3
16 15.09 З 6 25 км н/о +12.8 +6.7 66 +10 +10 1019.5 1018.9
17 15.09 З 7 17 км н/о +12.7 +5.4 61 +10 +10 1019.5 1018.9
18 15.09 З 4 20 км н/о +12.0 +6.5 69 +10 +10 1020.1 1019.5 +15.1
19 15.09 З 7 22 км н/о +10.1 +5.2 72 +6 +6 1019.9 1019.3
20 15.09 ЮЗ 5 28 км н/о +9.8 +5.0 72 +7 +7 1020.3 1019.7
21 15.09 ЮЗ 4 23 км н/о +8.6 +4.8 77 +6 +6 1020.6 1020.0
22 15.09 З 5 28 км н/о +9.3 +4.7 73 +6 +6 1020.8 1020.2
23 15.09 Ю 2 30 км н/о +7.7 +4.5 80 +6 +6 1020.4 1019.8
00 16.09 ЮЗ 4 29 км н/о +8.0 +5.1 82 +5 +5 1020.2 1019.6
01 16.09 ЮЗ 4 30 км н/о +8.4 +4.5 76 +5 +5 1020.0 1019.4
02 16.09 Ю 3 30 км н/о +7.1 +4.0 81 +5 +5 1019.8 1019.2
03 16.09 ЮЗ 2 35 км н/о +8.1 +5.1 81 +6 +6 1019.6 1019.0
04 16.09 ЮЗ 4 35 км н/о +8.7 +6.1 84 +6 +6 1019.2 1018.5
05 16.09 ЮЗ 7 35 км н/о +9.6 +5.9 78 +6 +6 1018.7 1018.1
06 16.09 ЮЗ 6 35 км н/о +9.3 +5.7 78 +6 +6 1018.7 1018.1 +6.6
07 16.09 ЮЗ 5 30 км н/о +9.7 +5.6 76 +7 +7 1018.5 1017.9
08 16.09 ЮЗ 7 35 км н/о +10.9 +6.1 72 +8 +8 1019.0 1018.3
09 16.09 З 8 30 км н/о +11.5 +7.1 74 +8 +8 1019.3 1018.6
10 16.09 ЮЗ 9 35 км н/о +11.8 +7.2 73 +8 +8 1019.1 1018.5
11 16.09 З 8
{13}
45 км н/о +12.4 +7.5 72 +9 +9 1018.9 1018.3
12 16.09 З 9 27 км н/о +13.8 +8.3 69 +11 +11 1019.1 1018.5
13 16.09 З 9
{14}
45 км н/о +14.4 +7.4 63 +12 +12 1018.7 1018.1
14 16.09 З 12
{17}
35 км н/о +13.5 +7.6 67 +10 +10 1018.9 1018.3
15 16.09 З 8
{15}
35 км слаб. дождь н/о +11.8 +9.7 87 +8 +8 1019.0 1018.4
16 16.09 З 9 40 км в посл. час дождь н/о +12.2 +8.9 80 +9 +9 1018.8 1018.2
17 16.09 З 9 35 км н/о +12.0 +7.9 76 +9 +9 1018.9 1018.3
18 16.09 СЗ 8 12 км слаб. ливневой дождь н/о +10.3 +8.3 87 +6 +6 1019.4 1018.8 +15.7 1
19 16.09 З 1 28 км в посл. час дождь н/о +9.5 +7.8 89 +9 +9 1019.8 1019.1
20 16.09 ЮЗ 5 20 км н/о +10.0 +6.1 77 +7 +7 1020.3 1019.7
21 16.09 З 6 20 км н/о +9.4 +4.5 71 +6 +6 1020.3 1019.7
22 16.09 З 7 23 км н/о +10.0 +5.2 72 +6 +6 1020.3 1019.7
23 16.09 З 8 21 км в посл. час дождь н/о +9.5 +5.6 77 +5 +5 1020.7 1020.0
00 17.09 З 8 22 км н/о +9.6 +5.4 75 +6 +6 1020.5 1019.9 0.0
01 17.09 З 9-14
{14}
22 км н/о +9.4 +5.1 74 +5 +5 1020.7 1020.1
02 17.09 З 10
{15}
22 км н/о +9.3 +3.5 67 +5 +5 1020.8 1020.2
03 17.09 З 8
{14}
21 км в посл. час дождь н/о +9.5 +4.1 69 +5 +5 1021.4 1020.8
04 17.09 З 8 22 км в посл. час дождь н/о +9.5 +4.6 71 +5 +5 1021.6 1021.0
05 17.09 З 8
{13}
21 км в посл. час дождь н/о +9.1 +4.8 74 +5 +5 1022.0 1021.4
06 17.09 З 8 25 км н/о +9.3 +5.2 76 +5 +5 1022.6 1022.0 +8.6 0.0
07 17.09 З 6 23 км н/о +9.1 +5.5 78 +5 +5 1023.6 1022.9
08 17.09 З 6 20 км н/о +9.9 +5.9 76 +7 +7 1024.1 1023.5
09 17.09 З 8 23 км н/о +11.3 +5.6 68 +8 +8 1024.5 1023.9
10 17.09 З 6 15 км н/о +10.9 +5.7 70 +8 +8 1025.5 1024.9
11 17.09 З 5 19 км н/о +11.6 +5.9 68 +9 +9 1025.9 1025.3
12 17.09 СЗ 5 26 км н/о +12.0 +6.6 70 +10 +10 1026.2 1025.6
13 17.09 СЗ 7 13 км н/о +12.7 +6.8 67 +10 +10 1026.3 1025.7
14 17.09 СЗ 7 35 км н/о +12.8 +6.4 65 +10 +10 1026.6 1026.0
15 17.09 З 5 29 км н/о +12.3 +6.0 65 +10 +10 1026.8 1026.2
16 17.09 З 6 30 км н/о +12.4 +6.8 69 +10 +10 1026.7 1026.1
17 17.09 СЗ 5 26 км н/о +11.6 +5.8 68 +9 +9 1026.8 1026.2
18 17.09 СЗ 4 21 км н/о +11.0 +5.7 70 +9 +9 1027.2 1026.6 +13.6
19 17.09 СЗ 3 24 км н/о +9.8 +6.2 78 +8 +8 1027.5 1026.9
20 17.09 СЗ 2 30 км н/о +9.5 +5.2 75 +8 +8 1027.9 1027.3
21 17.09 З 2 30 км н/о +9.5 +6.5 82 +8 +8 1028.4 1027.7
22 17.09 ЮЗ 2 28 км в посл. час дождь н/о +9.3 +5.8 79 +8 +8 1028.2 1027.6
23 17.09 ЮЗ 2 28 км слаб. морось с дождем н/о +8.9 +5.5 79 +7 +7 1028.2 1027.6
00 18.09 ЮЗ 2 35 км слаб. морось с дождем н/о +9.0 +5.2 77 +7 +7 1028.0 1027.4 0.0
01 18.09 ЮЗ 2 30 км слаб. дождь н/о +8.8 +5.6 80 +8 +8 1028.0 1027.4
02 18.09 ЮЗ 2 18 км слаб. дождь н/о +8.6 +6.2 85 +7 +7 1028.0 1027.4
03 18.09 Ю 3 16 км слаб. дождь н/о +8.3 +6.7 90 +6 +6 1027.4 1026.8
04 18.09 ЮЗ 1 15 км слаб. дождь н/о +8.2 +6.8 91 +7 +7 1027.3 1026.7
05 18.09 ЮВ 1 3700 м слаб. дождь н/о +7.8 +7.2 96 +7 +7 1027.1 1026.5
06 18.09 В 2 3200 м сильн. морось н/о +8.1 +7.9 99 +6 +6 1027.0 1026.4 +7.8 2
07 18.09 В 2 4300 м морось н/о +8.4 +8.3 99 +6 +6 1027.0 1026.3
08 18.09 В 2 3600 м слаб. дождь н/о +9.1 +9.0 99 +8 +8 1026.9 1026.2
09 18.09 В 3 3100 м слаб. дождь н/о +9.8 +9.7 99 +8 +8 1027.1 1026.4
10 18.09 В 3 2600 м слаб. морось н/о +10.6 +10.5 99 +9 +9 1026.9 1026.3
11 18.09 В 2 2500 м слаб. морось н/о +11.3 +11.1 99 +10 +10 1027.0 1026.4
12 18.09 СВ 3 4000 м слаб. морось н/о +11.3 +10.8 97 +10 +10 1027.1 1026.5 3
13 18.09 СВ 2 7000 м в посл. час дождь н/о +11.9 +11.6 98 +11 +11 1027.1 1026.5
14 18.09 С 2 8000 м дымка н/о +11.9 +11.3 96 +11 +11 1027.4 1026.8
15 18.09 С 2 19 км в посл. час дождь н/о +11.5 +11.1 97 +10 +10 1027.7 1027.0
16 18.09 С 1 11 км в посл. час дождь н/о +11.9 +11.5 97 +12 +12 1027.8 1027.1
17 18.09 С 2 7000 м в посл. час дождь н/о +11.6 +11.3 98 +11 +11 1028.0 1027.4
18 18.09 С 2 7000 м дымка н/о +11.5 +11.2 98 +11 +11 1028.2 1027.6 +12.1 3
19 18.09 С 1 5000 м в посл. час дождь н/о +11.3 +11.1 99 +11 +11 1028.4 1027.8
20 18.09 штиль 0 6000 м дымка н/о +11.3 +11.1 99 +11 +11 1028.6 1028.0
21 18.09 З 2 14 км н/о +11.4 +11.2 99 +10 +10 1028.7 1028.1
22 18.09 ЮЗ 1 11 км н/о +11.3 +11.1 99 +12 +12 1028.8 1028.2
23 18.09 ЮЗ 1 4000 м дымка н/о +11.3 +11.2 99 +11 +11 1028.9 1028.3
00 19.09 Ю 1 5000 м дымка н/о +11.0 +10.9 99 +11 +11 1028.8 1028.2 0.2
01 19.09 штиль 0 300 м туман н/о +9.0 +8.8 99 +8 +8 1028.8 1028.1
02 19.09 ЮЗ 2 16 км в посл. час туман н/о +10.5 +10.4 99 +9 +9 1028.5 1027.8
03 19.09 Ю 3 50 км н/о +11.0 +10.8 99 +9 +9 1028.2 1027.6
04 19.09 ЮЗ 3 50 км н/о +10.2 +9.9 98 +8 +8 1027.9 1027.3
05 19.09 ЮЗ 3 50 км н/о +9.3 +8.7 96 +7 +7 1028.1 1027.5
06 19.09 ЮЗ 3 50 км н/о +9.7 +9.5 99 +7 +7 1028.2 1027.6 +8.7 0.2
07 19.09 ЮЗ 5 50 км н/о +12.2 +10.9 92 +10 +10 1028.3 1027.7
08 19.09 ЮЗ 2 50 км н/о +13.2 +11.5 89 +13 +13 1028.7 1028.1
09 19.09 ЮЗ 4 40 км н/о +14.9 +12.4 85 +14 +14 1028.8 1028.2
10 19.09 ЮЗ 5 40 км н/о +15.8 +12.1 79 +15 +15 1028.7 1028.1
11 19.09 ЮЗ 6 35 км н/о +16.0 +11.6 75 +15 +15 1028.4 1027.8
12 19.09 З 4 30 км н/о +16.6 +12.3 76 +16 +16 1028.3 1027.7
13 19.09 З 4 28 км н/о +18.3 +13.9 76 +19 +19 1027.8 1027.2
14 19.09 З 5 50 км н/о +18.5 +13.5 73 +19 +19 1027.4 1026.8
15 19.09 З 4 45 км н/о +18.9 +14.4 75 +20 +20 1027.1 1026.5
16 19.09 З 5 40 км н/о +18.9 +14.1 74 +20 +20 1026.9 1026.3
17 19.09 С 3 23 км н/о +15.8 +12.6 81 +15 +15 1027.2 1026.6
18 19.09 В 1 40 км н/о +14.5 +11.8 84 +15 +15 1027.2 1026.6 +19.2
19 19.09 СВ 1 45 км н/о +12.0 +10.4 90 +13 +13 1027.5 1026.9
20 19.09 Ю 1 45 км н/о +10.9 +10.1 95 +10 +10 1027.5 1026.9
21 19.09 ЮВ 2 35 км н/о +10.7 +10.3 97 +10 +10 1027.7 1027.1
22 19.09 ЮЗ 2 50 км в посл. час туман н/о +9.4 +9.1 98 +8 +8 1027.7 1027.1
23 19.09 Ю 1 50 км в посл. час туман н/о +8.6 +8.4 99 +8 +8 1027.5 1026.9
00 20.09 Ю 1 50 км в посл. час туман н/о +7.9 +7.6 98 +7 +7 1027.2 1026.6
01 20.09 ЮЗ 1 27 км н/о +6.4 +5.8 96 +6 +6 1026.7 1026.1
02 20.09 ЮЗ 2 50 км н/о +6.0 +5.6 97 +4 +4 1026.4 1025.8
03 20.09 Ю 2 50 км н/о +5.2 +3.9 91 +3 +3 1026.0 1025.4
04 20.09 Ю 1 50 км н/о +5.5 +4.6 94 +4 +4 1025.7 1025.1
05 20.09 ЮЗ 1 50 км н/о +4.2 +3.5 95 +4 +4 1025.4 1024.8
06 20.09 В 1 14 км н/о +4.5 +3.7 95 +3 +3 1025.3 1024.7 +3.5 0.2
07 20.09 Ю 1 30 км н/о +5.0 +4.3 95 +5 +5 1025.4 1024.7
08 20.09 Ю 1 40 км н/о +8.7 +7.4 92 +8 +8 1025.4 1024.8
09 20.09 штиль 0 35 км н/о +12.1 +8.3 78 +12 +12 1025.0 1024.4
10 20.09 СВ 1 25 км н/о +15.5 +9.1 66 +16 +16 1024.4 1023.8
11 20.09 С 3 18 км н/о +15.6 +10.3 71 +15 +15 1023.9 1023.3
12 20.09 С 2 40 км н/о +16.0 +10.6 70 +16 +16 1023.2 1022.6
13 20.09 С 3 35 км н/о +15.5 +9.4 67 +15 +15 1022.3 1021.7
14 20.09 С 2 50 км н/о +17.5 +12.1 71 +18 +18 1021.4 1020.8
15 20.09 С 4 30 км н/о +16.9 +12.4 75 +17 +17 1020.4 1019.8
16 20.09 СЗ 4 21 км н/о +15.2 +12.7 85 +14 +14 1020.2 1019.6
17 20.09 С 2 22 км н/о +14.3 +12.3 88 +14 +14 1019.6 1019.0
18 20.09 С 2 18 км н/о +12.9 +10.7 86 +12 +12 1019.2 1018.6 +18.0
19 20.09 С 1 200 м туман н/о +11.5 +10.8 95 +12 +12 1019.0 1018.3
20 20.09 штиль 0 8000 м в посл. час туман н/о +9.9 +9.6 98 +9 +9 1018.8 1018.2
21 20.09 Ю 1 9000 м дымка н/о +10.1 +9.9 99 +10 +10 1018.8 1018.2
22 20.09 ЮВ 2 22 км в посл. час туман н/о +8.7 +8.4 98 +7 +7 1018.4 1017.8
23 20.09 ЮВ 2 40 км н/о +8.2 +7.8 97 +7 +7 1017.9 1017.3
00 21.09 ЮВ 2 45 км в посл. час туман н/о +7.9 +7.4 97 +6 +6 1017.2 1016.5
01 21.09 ЮВ 3 50 км н/о +10.5 +8.9 90 +9 +9 1016.9 1016.3
02 21.09 Ю 1 50 км н/о +7.5 +6.0 90 +6 +6 1016.3 1015.6
03 21.09 ЮВ 2 50 км н/о +7.7 +6.7 93 +6 +6 1015.6 1015.0
04 21.09 ЮВ 3 45 км н/о +12.3 +9.3 82 +11 +11 1014.9 1014.3
05 21.09 Ю 3 50 км н/о +15.3 +9.3 67 +15 +15 1014.3 1013.7
06 21.09 СВ 2 45 км н/о +10.4 +6.6 77 +9 +9 1014.2 1013.6 +6.3
07 21.09 В 2 35 км н/о +13.4 +8.7 73 +13 +13 1013.9 1013.3
08 21.09 ЮВ 5 40 км н/о +15.7 +9.4 66 +15 +15 1013.5 1012.9
09 21.09 Ю 4 6000 м дым н/о +18.0 +9.2 56 +18 +18 1013.3 1012.7
10 21.09 ЮВ 4 12 км дым н/о +19.9 +10.1 53 +21 +21 комфорт 1013.0 1012.4
11 21.09 В 7 45 км н/о +19.9 +11.6 59 +21 +21 комфорт 1012.1 1011.5
12 21.09 В 7 30 км н/о +20.5 +11.0 54 +22 +22 комфорт 1011.2 1010.7
13 21.09 ЮВ 5 21 км н/о +21.9 +8.3 42 +23 +23 комфорт 1010.8 1010.2
14 21.09 ЮВ 6 35 км н/о +22.4 +8.7 42 +24 +24 комфорт 1010.1 1009.6
15 21.09 ЮВ 10
{14}
45 км н/о +21.7 +8.7 43 +23 +23 комфорт 1009.1 1008.5
17 21.09 В 7 45 км н/о +19.4 +9.5 53 +20 +20 1008.6 1008.0
18 21.09 В 9
{13}
45 км н/о +18.1 +8.5 53 +17 +17 1008.3 1007.7 +22.9
19 21.09 В 7 50 км н/о +15.8 +8.4 61 +14 +14 1008.2 1007.6
20 21.09 ЮВ 6
{15}
40 км н/о +15.7 +8.4 62 +14 +14 1007.9 1007.3

 

Местоположение метеостанции Кинлосс (Великобритания): широта 57.65 долгота -3.57 высота над уровнем моря 5 м.

В архиве по умолчанию представлена погода в Кинлоссе за последнюю неделю. Архивные данные за месяц целиком и за предыдущие месяцы, начиная с января 2011 года, Вы можете получить, выбрав интересующий диапазон дат из раскрывающегося списка и нажав кнопку "Ввод!".


*Определитесь, кто Вы:
робот инопланетянин человек

Внимание! Время в таблицах - всемирное. Для получения местного времени необходимо прибавить поправку, которая равна 0 ч.

Смотрите также архив погоды в соседних городах и на ближайших метеорологических станциях:

Погода в Лоссимуте (Великобритания) (17 км)
Погода в Тейн-Рендже (Великобритания) (30 км)
Погода на Авморе (Великобритания) (52 км)
Погода на Кайрнгорме (Великобритания) (59 км)
Погода в Абойне (Великобритания) (77 км)
Погода на Озере Гласкарнок (Великобритания) (78 км)
Погода на Кэрнуэлле (Великобритания) (86 км)
Погода на Алтнахарре (Великобритания) (87 км)
Погода в Уике (Великобритания) (94 км)
Погода в Абердине (Великобритания) (95 км)

Пояснения к столбцам:

Ветер - указаны скорость ветра в м/с - средняя за 10 мин, порывы в срок и между сроками (в фигурных скобках) и направление, откуда дует ветер: С - северный, СВ - северо-восточный, В - восточный, ЮВ - юго-восточный, Ю - южный, ЮЗ - юго-западный, З - западный, СЗ - северо-западный.
Видимость - горизонтальная дальность видимости в метрах или километрах. При видимости от 1 до 10 км при отсутствии осадков обычно наблюдается дымка, при ухудшении видимости до 1 км и менее - туман. В сухую погоду видимость может ухудшаться дымом, пылью или мглою.
Явления - указаны атмосферные явления, наблюдавшиеся в срок или в последний час перед сроком; фигурными скобками обозначены явления, наблюдавшиеся между сроками (за 1-3 часа до срока); квадратными скобками обозначены град или гололедные отложения с указанием их диаметра в мм.
Облачность - указаны через наклонную черту общая и нижняя облачность в баллах и высота нижней границы облаков в метрах; квадратными скобками обозначены формы облаков: Ci - перистые, Cs - перисто-слоистые, Cc - перисто-кучевые, Ac - высококучевые, As - высокослоистые, Sc - слоисто-кучевые, Ns - слоисто-дождевые, Cu - кучевые, Cb - кучево-дождевые. Подробнее классификацию облаков см. в Атласе облаков (PDF).
T - Температура воздуха - температура, измеренная на высоте 2 м над землей.
Td - Температура точки росы - температура, при понижении до которой содержащийся в воздухе водяной пар достигнет насыщения.
f - Относительная влажность воздуха - влажноcть воздуха, измеренная на высоте 2 м над землей.
Te - Эффективная температура - температура, которую ощущает одетый по сезону человек в тени. Характеристика душности погоды. При расчете учитывается влияние влажности воздуха и скорости ветра на теплоощущения человека.
Tes - Эффективная температура на солнце - температура, которую ощущает человек, с поправкой на солнечный нагрев. Характеристика знойности погоды. Зависит от высоты солнца над горизонтом, облачности и скорости ветра. Ночью, в пасмурную погоду, а также при ветре 12 м/с и более поправка равна нулю.
P - Атмосферное давление - приведенное к уровню моря атмосферное давление.
Po - Атмосферное давление - измеренное на уровне метеостанции атмосферное давление.
Tmin - Минимальная температура - минимум температуры воздуха на высоте 2 м над землей.
Tmax - Максимальная температура - максимум температуры воздуха на высоте 2 м над землей.
R - Количество осадков - Количество выпавших осадков за период времени, мм. При наведении курсора мыши на число - период времени, за который выпало указанное количество осадков.
R24 - Количество осадков - Количество выпавших осадков за 24 часа, мм.
S - Снежный покров - Высота снежного покрова, см. При наведении курсора мыши на число - состояние снежного покрова и степень покрытия местности в баллах.